TIANTONG-1 3

Last updated on Tue Sep 16 2025 00:02:50 GMT+0000 (Coordinated Universal Time)

1 47321U 21003A 25258.60078269 -.00000171 00000+0 00000+0 0 9991 2 47321 2.0722 324.8620 0004386 264.4272 63.3022 1.00273237 17206
UTC large
Height (km)
Speed (km/s)
/
Latitude / Longitude
Inclination (degrees)
Orbital Period (minutes)
Azimuth
Elevation
Range (km)
Doppler Factor

Next 0 passes for location: London (51.5072 / 0.1276)

Sorry there are no passes over London.